Header for Extended Forecast Station List Page

Search by: ID | Name | Date | Parm | Value | Avg | % Avg
Sort by: ID | Name | Date | Parm | Value | Avg | % Avg

Enter search or view all records.

Click on id for station plot
#IDNameDateParmValueAvg% Avg
0ABOM8CLARK FORK-ABOVE MISSOULA04-12-2021DISCHARGE (KAF)1141137483
1AFRI1SNAKE-AMERICAN FALLS RESERVOIR04-12-2021INFLOW (KAF)1742229676
2ALFW1PEND OREILLE-ALBENI FALLS DAM04-12-2021INFLOW (KAF)76071058972
3ALPW4SNAKE-NEAR ALPINE04-12-2021DISCHARGE (KAF)1395204368
4ANAW1SNAKE-NEAR ANATONE04-12-2021DISCHARGE (KAF)72261240658
5ANTI1HENRYS FORK-AT ST. ANTHONY04-12-2021DISCHARGE (KAF)54560989
6ARAI1SF BOISE-ANDERSON RANCH DAM04-12-2021INFLOW (KAF)24148050
7ARDW1ENTIAT-NEAR ARDENVOIR04-12-2021DISCHARGE (KAF)219193113
8BELM8CLARK FORK-BELOW MISSOULA04-12-2021DISCHARGE (KAF)2176259184
9BERO3MALHEUR-AGENCY VALLEY DAM04-12-2021INFLOW (KAF)203461
10BFEI1KOOTENAI-AT BONNERS FERRY04-12-2021STAGE (FT)MMM
11BFTI1SNAKE-NEAR BLACKFOOT04-12-2021DISCHARGE (KAF)1242167274
12BIGI1BOISE-AT GLENWOOD BRIDGE04-12-2021DISCHARGE (KAF)38144685
13BITM8BITTERROOT-NEAR MISSOULA04-12-2021DISCHARGE (KAF)1040117788
14BONM8BLACKFOOT-NEAR BONNER04-12-2021DISCHARGE (KAF)64377883
15BONO3COLUMBIA-BONNEVILLE DAM04-12-2021INFLOW (KAF)482155984381
16BRNI1SNAKE-BROWNLEE DAM04-12-2021INFLOW (KAF)3208486866
17BUDW1BUMPING-BUMPING LAKE DAM04-12-2021INFLOW (KAF)117109108
18BULO3BULLY CREEK-BULLY CREEK DAM04-12-2021INFLOW (KAF)1254
19CABI1CLARK FORK-CABINET GORGE DAM04-12-2021INFLOW (KAF)6684911773
20CFMM8FLATHEAD-AT COLUMBIA FALLS04-12-2021DISCHARGE (KAF)3337408082
21CHDW1CHELAN-LAKE CHELAN DAM04-12-2021INFLOW (KAF)1067973110
22CHEI1FALL RIVER-NEAR CHESTER04-12-2021DISCHARGE (KAF)24530879
23CHJW1COLUMBIA-CHIEF JOSEPH DAM04-12-2021INFLOW (KAF)276683142288
24CIBW1COLUMBIA-AT INTL BOUNDARY04-12-2021DISCHARGE (KAF)26985MM
25CLFW1NACHES-NEAR CLIFFDEL04-12-2021DISCHARGE (KAF)404338120
26CLUW1CLE ELUM-CLE ELUM LAKE04-12-2021INFLOW (KAF)457361127
27COEI1COEUR D ALENE-COEUR D ALENE LAKE04-12-2021INFLOW (KAF)1756226478
28CSDI1NF PAYETTE-CASCADE DAM04-12-2021INFLOW (KAF)30345666
29DEDI1DEADWOOD-NEAR LOWMAN04-12-2021INFLOW (KAF)7912862
30DLGM8CLARK FORK-AT DEER LODGE04-12-2021DISCHARGE (KAF)677590
31DRMM8CLARK FORK-NR DRUMMOND04-12-2021DISCHARGE (KAF)193MM
32DWRI1NF CLEARWATER-DWORSHAK DAM04-12-2021INFLOW (KAF)1987245781
33EASW1YAKIMA-AT EASTON04-12-2021DISCHARGE (KAF)10993117
34EMMI1PAYETTE-NEAR EMMETT04-12-2021DISCHARGE (KAF)622114055
35FCFM8NF FLATHEAD-NEAR COLUMBIA FALLS04-12-2021DISCHARGE (KAF)1008157264
36GCDW1COLUMBIA-GRAND COULEE DAM04-12-2021INFLOW (KAF)302374158673
37GIBO3UMATILLA-NEAR GIBBON04-12-2021DISCHARGE (KAF)8157143
38HALI1BIG WOOD-AT HAILEY04-12-2021DISCHARGE (KAF)8522438
39HEII1SNAKE-NEAR HEISE04-12-2021DISCHARGE (KAF)2848302294
40HHWM8SF FLATHEAD-HUNGRY HORSE DAM04-12-2021INFLOW (KAF)1537186982
41HODO3HOOD-NEAR TUCKER BRIDGE04-12-2021DISCHARGE (KAF)197197100
42HOPI1PEND OREILLE-PEND OREILLE LAKE NR HOPE04-12-2021LAKE ELEVATION (FT)MMM
43HOTI1BRUNEAU-NEAR HOT SPRINGS04-12-2021DISCHARGE (KAF)10416663
44HWRI1BIG LOST-AT HOWELL RANCH NEAR CHILLY04-12-2021DISCHARGE (KAF)4215826
45IHDW1SNAKE-ICE HARBOR DAM04-12-2021INFLOW (KAF)121781878965
46IPDI1HENRYS FORK-ISLAND PARK DAM04-12-2021INFLOW (KAF)15120773
47JDAO3COLUMBIA-JOHN DAY DAM04-12-2021INFLOW (KAF)471896472673
48JKSW4SNAKE-NEAR JACKSON04-12-2021DISCHARGE (KAF)1149158173
49JLKW4SNAKE-JACKSON LAKE AT DAM04-12-2021INFLOW (KAF)51775369
50KADW1KACHESS-KACHESS DAM04-12-2021INFLOW (KAF)11295118
51KEDW1YAKIMA-KEECHELUS LAKE04-12-2021INFLOW (KAF)127102124
52KERM8FLATHEAD-SELI’Š KSANKA QLISPE’ DAM04-12-2021INFLOW (KAF)3739508274
53KIOW1YAKIMA-AT KIONA04-12-2021DISCHARGE (KAF)796780102
54LAUW1KETTLE-AT LAURIER04-12-2021DISCHARGE (KAF)1316167978
55LEOI1KOOTENAI-AT LEONIA04-12-2021DISCHARGE (KAF)3685523770
56LGDW1SNAKE-LOWER GRANITE DAM04-12-2021INFLOW (KAF)121161883264
57LGSW1SNAKE-LITTLE GOOSE DAM04-12-2021INFLOW (KAF)120611884564
58LLKW1SPOKANE-AT LONGLAKE04-12-2021INFLOW (KAF)1879277268
59LMNW1SNAKE-LOWER MONUMENTAL DAM04-12-2021INFLOW (KAF)121751890964
60LUCI1BOISE-LUCKY PEAK DAM04-12-2021INFLOW (KAF)1032MM
61LWRI1LITTLE WOOD-LITTLE WOOD DAM04-12-2021INFLOW (KAF)227131
62LYDM8KOOTENAI-LIBBY DAM04-12-2021INFLOW (KAF)4686572782
63MACI1BIG LOST-MACKAY RESERVOIR NEAR MACKAY04-12-2021INFLOW (KAF)3815824
64MAGI1BIG WOOD-MAGIC DAM04-12-2021INFLOW (KAF)4121719
65MCDW1COLUMBIA-MCNARY DAM04-12-2021INFLOW (KAF)456036289373
66MILI1SNAKE-AT MILNER04-12-2021DISCHARGE (KAF)M321M
67MODO3DESCHUTES-AT MOODY NR BIGGS04-12-2021DISCHARGE (KAF)1170130590
68MONO3NF JOHN DAY-AT MONUMENT04-12-2021DISCHARGE (KAF)41047287
69MYKO3MCKAY CREEK-NEAR PILOT ROCK04-12-2021DISCHARGE (KAF)111576
70NACW1NACHES-NEAR NACHES04-12-2021DISCHARGE (KAF)563469120
71NOXM8CLARK FORK-NOXON RAPIDS DAM04-12-2021INFLOW (KAF)6069860471
72ORFI1CLEARWATER-AT OROFINO04-12-2021DISCHARGE (KAF)3581427884
73OWYO3OWYHEE-OWYHEE DAM04-12-2021INFLOW (KAF)7424231
74PARI1BOISE-NEAR PARMA04-12-2021DISCHARGE (KAF)35040287
75PARW1YAKIMA-NEAR PARKER04-12-2021DISCHARGE (KAF)525422124
76PATW1METHOW-NEAR PATEROS04-12-2021DISCHARGE (KAF)921821112
77PDTO3UMATILLA-AT PENDLETON04-12-2021DISCHARGE (KAF)157106148
78PESW1WENATCHEE-AT PESHASTIN04-12-2021DISCHARGE (KAF)14841376108
79PIHI1PORTNEUF-AT POCATELLO04-12-2021DISCHARGE (KAF)316945
80PITW1KLICKITAT-NEAR PITT04-12-2021DISCHARGE (KAF)39843891
81PLDI1SF SNAKE-PALISADES DAM04-12-2021INFLOW (KAF)1983293268
82PRTI1PRIEST-NEAR PRIEST RIVER04-12-2021DISCHARGE (KAF)49873468
83PRWW1COLUMBIA-PRIEST RAPIDS DAM04-12-2021INFLOW (KAF)325624220277
84RCCM8ROCK CREEK-NEAR CLINTON04-12-2021DISCHARGE (KAF)259252103
85REXI1HENRYS FORK-AT REXBURG04-12-2021DISCHARGE (KAF)55370179
86RIDI1WILLOW CREEK-RIRIE DAM04-12-2021INFLOW (KAF)193948
87RILW1TIETON-RIMROCK LAKE NEAR RIMROCK04-12-2021INFLOW (KAF)208185113
88RRHW1COLUMBIA-ROCKY REACH DAM04-12-2021INFLOW (KAF)310533457390
89SATI1ST MARIES-NEAR SANTA04-12-2021DISCHARGE (KAF)8011371
90SERO3JOHN DAY-AT SERVICE CK04-12-2021DISCHARGE (KAF)51566078
91SHYI1SNAKE-NEAR SHELLEY04-12-2021DISCHARGE (KAF)1808225880
92SIFI1SNAKE-AB EAGLE ROCK NR IDAHO FALLS04-12-2021DISCHARGE (KAF)2057245984
93SJMI1ST JOE-AT ST MARIES04-12-2021STAGE (FT)MMM
94SNAI1SNAKE-AT BLACKFOOT04-12-2021DISCHARGE (KAF)1291177673
95SPDI1CLEARWATER-AT SPALDING04-12-2021DISCHARGE (KAF)4890641476
96SPOW1SPOKANE-AT SPOKANE04-12-2021DISCHARGE (KAF)1694MM
97SRGM8CLARK FORK-AT ST REGIS04-12-2021DISCHARGE (KAF)2742346179
98STRM8ST. REGIS-NEAR ST. REGIS04-12-2021DISCHARGE (KAF)19223582
99SWAI1SNAKE-BELOW SWAN FALLS04-12-2021DISCHARGE (KAF)1502227866
100TCHW1WALLA WALLA-NEAR TOUCHET04-12-2021DISCHARGE (KAF)888999
101TDAO3COLUMBIA-THE DALLES DAM04-12-2021INFLOW (KAF)473565803582
102TEAI1TETON-NEAR ST. ANTHONY04-12-2021DISCHARGE (KAF)28233883
103TNAW1TEANAWAY-BELOW FORKS04-12-2021DISCHARGE (KAF)137100138
104TONW1OKANOGAN-NEAR TONASKET04-12-2021DISCHARGE (KAF)16021411114
105TRYO3GRANDE RONDE-TROY04-12-2021DISCHARGE (KAF)975110488
106UMAO3UMATILLA-NEAR UMATILLA04-12-2021DISCHARGE (KAF)12658218
107UMTW1YAKIMA-AT UMTANUM04-12-2021DISCHARGE (KAF)847791107
108UNDW1WHITE SALMON-NEAR UNDERWOOD04-12-2021DISCHARGE (KAF)25629686
109WANW1COLUMBIA-WANAPUM DAM04-12-2021INFLOW (KAF)325664138279
110WEII1SNAKE-AT WEISER04-12-2021DISCHARGE (KAF)2879451564
111WELW1COLUMBIA-WELLS DAM04-12-2021INFLOW (KAF)301923403489
112WGCM8MF FLATHEAD-NEAR WEST GLACIER04-12-2021DISCHARGE (KAF)1300152985
113WHBI1SALMON-AT WHITEBIRD04-12-2021DISCHARGE (KAF)3280554759
114WRMO3MALHEUR-WARM SPRINGS DAM04-12-2021INFLOW (KAF)202773
115WSRI1WEISER-NEAR WEISER04-12-2021DISCHARGE (KAF)22032069